[[{"header":{"parameterUnit":"m.s-1","parameterCategory":1,"la1":30.2992,"la2":30.254,"lo1":-89.0895,"lo2":-89.0443,"dy":0.0025,"dx":0.0025,"nx":19,"ny":19,"refTime":"2026-05-15T09:00:00:Z","depth":0,"parameterNumber":2,"parameterNumberName":"U-component_of_WINDS"},"data":[0,0,0,-1.2189,-1.2188,-1.2132,-1.2132,-1.2073,-1.2073,0,0,0,0,0,0,0,0,0,0,0,-1.2214,-1.2214,-1.2189,-1.2188,-1.2133,-1.2132,-1.2073,-1.2073,0,0,0,0,0,0,0,0,0,0,0,-1.2214,-1.2214,-1.2213,-1.2188,-1.2133,-1.2132,-1.2073,-1.2111,0,0,0,0,0,0,0,0,0,0,-1.2163,-1.2193,-1.2214,-1.2213,-1.2188,-1.2133,-1.2132,-1.2113,-1.2109,-1.2104,0,-1.2103,0,-1.2087,-1.207,-1.207,0,0,0,-1.2182,-1.2197,-1.2175,-1.2213,-1.2187,-1.2133,-1.2156,-1.211,-1.2106,-1.2099,-1.2102,-1.2099,-1.2086,-1.207,-1.2069,-1.2065,-1.2065,0,0,-1.2185,-1.2208,-1.2178,-1.2172,-1.2182,-1.2158,-1.2154,-1.2107,-1.2111,-1.2101,-1.2097,-1.2085,-1.2069,-1.2069,-1.2065,-1.2065,0,0,0,-1.2198,-1.221,-1.2189,-1.2175,-1.2164,-1.2156,-1.2152,-1.2114,-1.2105,-1.2097,-1.2084,-1.2069,-1.2068,-1.2065,-1.2065,-1.2101,0,0,0,-1.22,-1.2218,-1.2191,-1.2204,-1.2165,-1.2138,-1.216,-1.2108,-1.2102,-1.2085,-1.2069,-1.2068,-1.2064,-1.2065,-1.2099,-1.2114,0,0,0,-1.2215,-1.2219,-1.2214,-1.2205,-1.2182,-1.2138,-1.2127,-1.2106,-1.2095,-1.207,-1.2068,-1.2064,-1.2065,-1.2098,-1.2111,-1.212,0,0,0,-1.2237,-1.2246,-1.2215,-1.2221,-1.2183,-1.2161,-1.2127,-1.2109,-1.2092,-1.2069,-1.2064,-1.2065,-1.2097,-1.211,-1.2119,-1.2131,-1.2139,0,0,-1.2261,-1.225,-1.2251,-1.2222,-1.2212,-1.2168,-1.2163,-1.2125,-1.2101,-1.2078,-1.2078,-1.21,-1.2111,-1.212,-1.2173,-1.2179,0,0,0,-1.2267,-1.2268,-1.2261,-1.2246,-1.2218,-1.2195,-1.2156,-1.2142,-1.2121,-1.2094,-1.2104,-1.211,-1.2114,-1.212,-1.2125,-1.2127,-1.2068,-1.2068,-1.2068,-1.2334,-1.2304,-1.2304,-1.2268,-1.2254,-1.2214,-1.22,-1.2174,-1.2147,-1.215,-1.2143,-1.2179,-1.2186,-1.219,-1.2192,-1.2147,-1.2148,-1.2148,-1.2148,-1.2367,-1.2364,-1.2329,-1.2318,-1.2286,-1.2275,-1.2237,-1.2219,-1.2204,-1.2182,-1.2184,-1.2162,-1.2198,-1.2198,-1.215,-1.215,-1.2149,-1.2149,-1.2149,-1.2407,-1.2401,-1.2385,-1.236,-1.2345,-1.2308,-1.2296,-1.2267,-1.224,-1.2242,-1.2232,-1.2231,-1.2227,-1.2239,-1.2239,-1.2239,-1.2239,-1.2239,-1.2239,-1.2456,-1.2436,-1.243,-1.2402,-1.2389,-1.2368,-1.2329,-1.2315,-1.2292,-1.2272,-1.2272,-1.2245,-1.2207,-1.2198,-1.2241,-1.2241,-1.2241,-1.2241,-1.224,-1.2501,-1.2487,-1.2477,-1.2464,-1.2429,-1.2416,-1.238,-1.2355,-1.2339,-1.2334,-1.2307,-1.2283,-1.2269,-1.2265,-1.2257,-1.2313,-1.2313,-1.2313,-1.2313,-1.2536,-1.2526,-1.251,-1.2492,-1.247,-1.2437,-1.2427,-1.2396,-1.2362,-1.2351,-1.2339,-1.2326,-1.2323,-1.2311,-1.2305,-1.2298,-1.2363,-1.2363,-1.2363,-1.2562,-1.2549,-1.2547,-1.2514,-1.2484,-1.2459,-1.2449,-1.2429,-1.2387,-1.2365,-1.2341,-1.2339,-1.2319,-1.2313,-1.229,-1.2282,-1.2268,0,0]},{"header":{"parameterUnit":"m.s-1","parameterCategory":1,"la1":30.2992,"la2":30.254,"lo1":-89.0895,"lo2":-89.0443,"dy":0.0025,"dx":0.0025,"nx":19,"ny":19,"refTime":"2026-05-15T09:00:00:Z","depth":0,"parameterNumber":3,"parameterNumberName":"V-component_of_WINDS"},"data":[0,0,0,4.0691,4.0691,4.0721,4.0721,4.0761,4.0762,0,0,0,0,0,0,0,0,0,0,0,4.0684,4.0685,4.069,4.0691,4.0721,4.0721,4.0761,4.0762,0,0,0,0,0,0,0,0,0,0,0,4.0684,4.0685,4.0685,4.0691,4.0721,4.0721,4.0761,4.0738,0,0,0,0,0,0,0,0,0,0,4.0708,4.0705,4.0685,4.0685,4.0692,4.0721,4.0721,4.0736,4.0739,4.0749,0,4.076,0,4.0762,4.0765,4.0765,0,0,0,4.0689,4.0703,4.0709,4.0685,4.0692,4.0721,4.0707,4.0738,4.0741,4.0753,4.0761,4.0762,4.0762,4.0765,4.0765,4.0835,4.0835,0,0,4.0687,4.0691,4.0707,4.0711,4.0708,4.0706,4.0708,4.074,4.0748,4.0761,4.0763,4.0763,4.0765,4.0766,4.0835,4.0835,0,0,0,4.0684,4.069,4.0695,4.071,4.0715,4.0707,4.0709,4.0746,4.0748,4.0763,4.0764,4.0765,4.0766,4.0834,4.0835,4.0859,0,0,0,4.0683,4.0688,4.0694,4.0696,4.0714,4.0731,4.0715,4.0746,4.0749,4.0763,4.0765,4.0766,4.0834,4.0834,4.0858,4.087,0,0,0,4.0682,4.0688,4.0693,4.0696,4.071,4.0731,4.0734,4.0746,4.0749,4.0765,4.0767,4.0833,4.0834,4.0856,4.0867,4.0889,0,0,0,4.068,4.0714,4.0693,4.0731,4.0709,4.0747,4.0734,4.0761,4.0777,4.0766,4.0834,4.0835,4.0856,4.0866,4.0887,4.0907,4.0916,0,0,4.0724,4.0719,4.0741,4.0724,4.0766,4.0742,4.0787,4.0798,4.0796,4.0822,4.0823,4.0858,4.0867,4.0889,4.0966,4.0973,0,0,0,4.0756,4.0772,4.0782,4.0799,4.0809,4.0819,4.0823,4.0827,4.0849,4.081,4.0872,4.0878,4.089,4.0899,4.0905,4.0915,4.0839,4.0839,4.0839,4.0822,4.0819,4.0855,4.0855,4.0871,4.0876,4.0889,4.0895,4.0886,4.0901,4.0908,4.0956,4.0967,4.0971,4.0981,4.0919,4.0919,4.0919,4.092,4.0885,4.0906,4.0896,4.0926,4.0923,4.0948,4.0954,4.0947,4.097,4.095,4.096,4.0938,4.0979,4.0988,4.0921,4.0921,4.0921,4.0921,4.092,4.0926,4.0936,4.0942,4.0966,4.0985,4.0984,4.1007,4.1003,4.0999,4.101,4.1016,4.1016,4.1014,4.1013,4.1014,4.1014,4.1014,4.1014,4.1014,4.0966,4.0972,4.0992,4.1008,4.1018,4.1031,4.1037,4.1047,4.1056,4.1051,4.1051,4.1041,4.0984,4.0969,4.1017,4.1016,4.1016,4.1016,4.1015,4.1029,4.1014,4.1045,4.1056,4.1074,4.1093,4.1088,4.1108,4.1116,4.1127,4.1115,4.1074,4.1068,4.1063,4.1051,4.1116,4.1116,4.1116,4.1116,4.1062,4.106,4.1091,4.1108,4.1125,4.1124,4.1159,4.1164,4.1167,4.1172,4.1162,4.1146,4.1141,4.1137,4.1131,4.1119,4.1201,4.1201,4.1201,4.11,4.11,4.113,4.1134,4.1148,4.116,4.1192,4.1211,4.1212,4.1204,4.1175,4.1171,4.1145,4.1137,4.1126,4.1116,4.1095,0,0]}]]